AKDT,Max TemperatureF,Mean TemperatureF,Min TemperatureF,Max Dew PointF,MeanDew PointF,Min DewpointF,Max Humidity, Mean Humidity, Min Humidity, Max Sea Level PressureIn, Mean Sea Level PressureIn, Min Sea Level PressureIn, Max VisibilityMiles, Mean VisibilityMiles, Min VisibilityMiles, Max Wind SpeedMPH, Mean Wind SpeedMPH, Max Gust SpeedMPH,PrecipitationIn, CloudCover, Events, WindDirDegrees
2012-6-1,57,47,37,34,31,28,75,54,36,29.75,29.71,29.68,10,10,10,16,6,20,0.00,3,,193
2012-6-2,62,50,39,45,38,32,87,62,42,29.89,29.75,29.69,10,10,8,15,5,16,0.00,6,,242
2012-6-3,51,45,39,45,42,37,93,82,66,30.08,30.00,29.89,10,10,8,13,5,16,0.00,8,,224
2012-6-4,51,46,42,41,38,36,93,74,58,30.09,30.07,30.03,10,10,10,12,4,,0.00,6,,278
2012-6-5,60,45,30,43,37,28,93,69,45,30.03,29.92,29.84,10,10,9,15,4,20,0.00,4,,293
2012-6-6,57,47,37,48,40,34,93,75,48,30.02,29.93,29.87,10,10,6,12,3,,0.00,6,,167
2012-6-7,57,50,44,43,41,37,93,72,51,30.03,29.91,29.76,10,10,9,13,3,,0.00,7,,281
2012-6-8,59,52,46,45,40,37,76,63,51,29.98,29.76,29.68,10,10,10,17,6,18,0.00,6,,254
2012-6-9,55,48,42,41,38,36,87,67,47,30.06,30.03,29.98,10,10,9,16,4,20,0.00,7,,265
2012-6-10,62,50,39,45,40,36,87,71,42,30.00,29.87,29.82,10,10,9,10,3,16,0.00,7,,298
2012-6-11,59,47,35,45,40,30,93,72,51,29.88,29.85,29.83,10,10,9,17,5,21,0.00,4,,263
2012-6-12,51,48,46,46,44,39,100,83,66,29.89,29.87,29.86,10,8,2,6,3,,0.00,8,,150
2012-6-13,51,48,44,46,44,43,100,90,76,29.95,29.90,29.87,10,7,2,10,4,,0.00,8,,294
2012-6-14,57,50,44,43,41,34,93,72,41,29.96,29.94,29.90,10,10,9,13,2,,0.00,6,,80
2012-6-15,59,48,37,37,35,30,81,56,39,29.92,29.74,29.47,10,10,10,14,5,20,0.00,6,,83
2012-6-16,62,48,33,45,39,28,87,64,42,29.46,29.35,29.28,10,10,9,14,4,,0.00,4,,279
2012-6-17,71,55,39,46,43,36,87,58,35,29.82,29.65,29.45,10,10,10,15,5,16,0.00,1,,270
2012-6-18,62,55,48,46,45,43,87,65,52,29.95,29.89,29.82,10,10,10,15,5,,0.00,4,,271
2012-6-19,64,54,44,48,45,41,93,68,52,30.01,29.97,29.95,10,10,9,15,5,,0.00,4,,274
2012-6-20,57,52,46,48,46,43,88,78,63,30.10,30.07,30.01,10,10,8,14,5,,0.00,4,,276
2012-6-21,69,56,42,54,48,39,93,69,53,30.09,30.04,29.97,10,10,10,13,4,16,0.00,1,,283
2012-6-22,69,56,44,52,48,41,87,66,46,30.03,29.99,29.94,10,10,10,13,5,,0.00,0,,283
2012-6-23,68,56,44,50,45,39,87,64,43,29.96,29.89,29.75,10,10,10,15,4,18,0.00,0,,276
2012-6-24,55,52,48,48,46,43,94,86,63,29.75,29.65,29.62,10,7,2,10,4,,0.00,7,,271
2012-6-25,51,50,48,48,46,45,93,90,82,29.66,29.60,29.51,10,8,1,8,2,,0.00,8,,294
2012-6-26,55,50,46,48,45,43,93,83,67,29.61,29.54,29.50,10,10,3,10,5,,0.00,7,,224
2012-6-27,60,51,42,46,43,39,93,70,48,29.77,29.70,29.62,10,10,8,14,4,17,0.00,3,,249
2012-6-28,53,50,46,48,45,43,94,84,72,29.84,29.81,29.78,10,9,2,7,4,,0.00,8,,174
2012-6-29,64,52,41,48,45,39,93,75,52,29.84,29.81,29.77,10,10,2,12,2,,0.00,4,,292
2012-6-30,59,49,39,45,43,36,93,73,59,29.79,29.75,29.71,10,10,10,18,4,18,0.00,3,,265